Regional Weather Roundup
Issued by NWS State College, PA

Home | Current Version | Previous Version | Graphics & Text | Print | Product List | Glossary Off
Versions: 1 2 3 4 5 6 7 8 9 10 11 12 13 14 15 16 17 18 19 20 21 22 23 24 25 26 27 28 29 30 31 32 33 34 35 36 37 38 39 40 41 42 43 44 45 46 47 48 49 50

000
ASUS41 KCTP 010710
RWRCTP

REGIONAL WEATHER ROUNDUP
NATIONAL WEATHER SERVICE STATE COLLEGE PA
300 AM EDT SUN MAY 01 2016

Note: "fair" indicates few or no clouds below 12,000 feet with no
significant weather and/or obstructions to visibility.

* = STATION THAT DOES NOT REPORT PRECIPITATION /E.G. RAIN...SNOW...ETC/
    THUNDER OR FOG.

PAZ002>004-007>009-013>016-020>023-029>032-010800-
WESTERN PENNSYLVANIA

CITY           SKY/WX    TMP DP  RH WIND       PRES   REMARKS
ERIE           LGT RAIN  52  48  86 E6        29.93F
MEADVILLE      LGT RAIN  48  48 100 VRB5      29.91F
FRANKLIN*      CLOUDY    48  46  93 SE10      29.95F
NEW CASTLE     LGT RAIN  53  52  96 VRB5      29.92F
BEAVER COUNTY  NOT AVBL
BUTLER*        CLOUDY    52  48  87 SE7       29.96F
PITTSBURGH INT LGT RAIN  55  52  89 SE6       29.92F
PITTSBURGH     LGT RAIN  54  52  93 SE8       29.93F
INDIANA*       CLOUDY    52  50  93 S12G18    29.99F FOG
LATROBE        LGT RAIN  55  55 100 S5        29.96F
WASHINGTON CO* CLOUDY    55  54  94 S5        29.94F
$$

PAZ004>006-010>012-017>019-024>028-033>037-041-042-045-046-049>053-010800-
CENTRAL PENNSYLVANIA

CITY           SKY/WX    TMP DP  RH WIND       PRES   REMARKS
BRADFORD       LGT RAIN  46  43  89 SE12      29.98F
DUBOIS         LGT RAIN  47  45  93 SE12      29.97F FOG
CLEARFIELD     RAIN      48  46  93 E3        30.03F FOG
JOHNSTOWN      HVY RAIN  48  43  82 SE8       30.00F
ALTOONA        LGT RAIN  49  46  90 S7        30.05F FOG
STATE COLLEGE  RAIN      48  47  94 CALM      30.06F
WILLIAMSPORT   RAIN      50  47  89 NE13      30.10S FOG
SELINSGROVE    LGT RAIN  51  47  86 S7        30.13S FOG
FT INDIANTOWN  DRIZZLE   50  41  71 E1        30.14F
CAPITAL CITY   RAIN      51  46  83 SE10      30.13F
HARRISBURG     LGT RAIN  51  45  79 S9        30.13S
YORK           LGT RAIN  49  45  86 SE10      30.13F
$$

PAZ038>040-043-044-047-048-054-055-060>062-067>071-010800-
EASTERN PENNSYLVANIA

CITY           SKY/WX    TMP DP  RH WIND       PRES   REMARKS
SCRANTON       LGT RAIN  49  45  86 CALM      30.12F
MOUNT POCONO   LGT RAIN  42  37  82 SE6       30.14F
ALLENTOWN      CLOUDY    51  36  56 CALM      30.17S
QUAKERTOWN*    CLOUDY    48  39  71 CALM      30.18S
READING        CLOUDY    50  39  66 E5        30.14F
LANCASTER      LGT RAIN  48  41  76 S8        30.15F
COATESVILLE    CLOUDY    46  43  87 NE6       30.17S
POTTSTOWN      CLOUDY    48  40  73 CALM      30.18F
BLUE BELL      CLOUDY    46  36  66 CALM      30.17F
DOYLESTOWN     CLOUDY    46  37  71 CALM      30.17F
WILLOW GROVE   NOT AVBL
NORTH PHILA    CLOUDY    49  40  71 SE5       30.20F
PHILADELPHIA   CLOUDY    50  38  63 S5        30.18F
$$



USA.gov is the U.S. government's official web portal to all federal, state and local government web resources and services.